Location: Unspecified
(44.4377°N, 88.0525°W)
Time: 16:12:48
(UTC-06:00)

Cosmos 1674 - Visible Passes

Search period start: 18 January 2017 00:00
Search period end: 28 January 2017 00:00
Orbit: 500 x 523 km, 82.5° (Epoch: 18 January)

Date Brightness Start Highest point End Pass type
(mag) Time Alt. Az. Time Alt. Az. Time Alt. Az.
18 Jan 2.8 17:15:05 10° S 17:18:48 55° E 17:22:35 10° NNE visible
18 Jan 5.9 18:53:28 10° W 18:54:50 12° WNW 18:56:13 10° NW visible
19 Jan 5.7 18:36:19 10° WSW 18:38:26 14° WNW 18:40:34 10° NW visible
20 Jan 5.6 18:19:27 10° WSW 18:22:03 17° WNW 18:24:41 10° NNW visible
21 Jan 5.3 18:02:43 10° WSW 18:05:41 21° WNW 18:08:42 10° NNW visible
22 Jan 5.0 17:46:05 10° SW 17:49:20 26° WNW 17:52:36 10° NNW visible
23 Jan 4.6 17:29:30 10° SW 17:32:58 32° WNW 17:36:29 10° N visible
